Location: Huntsville
(34.7300°N, 86.5860°W)
Time: 00:19:48
(UTC-05:00)

Envisat - Visible Passes

Search period start: 26 October 2021 00:00
Search period end: 05 November 2021 00:00
Orbit: 764 x 766 km, 98.2° (Epoch: 25 October)

Date Brightness Start Highest point End Pass type
(mag) Time Alt. Az. Time Alt. Az. Time Alt. Az.
26 Oct 5.5 04:50:36 10° NE 04:54:23 21° E 04:58:07 10° SE visible
26 Oct 3.5 06:28:47 10° N 06:33:27 37° WNW 06:38:06 10° SW visible
27 Oct 3.0 05:51:38 10° NNE 05:56:44 89° W 06:01:48 10° SSW visible
28 Oct 4.5 05:15:08 10° NNE 05:19:50 38° E 05:24:31 10° SSE visible
29 Oct 5.9 04:39:42 10° NE 04:42:45 16° E 04:45:47 10° SE visible
29 Oct 3.2 06:17:06 10° N 06:21:59 49° WNW 06:26:50 10° SSW visible
30 Oct 3.3 05:40:08 10° NNE 05:45:13 71° ESE 05:50:16 10° S visible
30 Oct 6.5 18:33:43 10° WSW 18:35:27 12° W 18:37:11 10° WNW visible
31 Oct 5.0 05:03:52 10° NE 05:08:15 29° E 05:12:37 10° SSE visible
01 Nov 6.1 04:29:17 10° ENE 04:31:07 12° E 04:32:56 10° ESE visible
01 Nov 3.0 06:05:28 10° N 06:10:30 64° WNW 06:15:30 10° SSW visible
02 Nov 3.8 05:28:42 10° NNE 05:33:40 54° E 05:38:37 10° S visible
02 Nov 6.2 18:20:51 10° SW 18:23:49 16° W 18:26:48 10° WNW visible
03 Nov 5.4 04:52:43 10° NE 04:56:40 22° E 05:00:35 10° SE visible
03 Nov 3.6 06:31:07 10° N 06:35:41 35° WNW 06:40:15 10° SW visible
04 Nov 2.9 05:53:54 10° N 05:58:59 83° WNW 06:04:03 10° SSW visible
